Location: Caltech
(34.1382°N, 118.1253°W)
Time: 07:07:51
(UTC-07:00)

PANSAT - Visible Passes

Search period start: 04 August 2015 00:00
Search period end: 14 August 2015 00:00
Orbit: 483 x 490 km, 28.5° (Epoch: 03 August)

Date Brightness Start Highest point End Pass type
(mag) Time Alt. Az. Time Alt. Az. Time Alt. Az.
04 Aug 9.0 04:45:00 21° S 04:45:55 23° SSE 04:48:59 10° ESE visible
05 Aug 9.2 04:18:49 23° SSE 04:18:49 23° SSE 04:21:20 10° ESE visible
06 Aug 9.9 03:52:40 15° ESE 03:52:40 15° ESE 03:53:41 10° ESE visible
06 Aug 8.4 05:26:56 11° WSW 05:30:11 34° S 05:33:40 10° ESE visible
07 Aug 8.4 05:00:48 23° SW 05:02:30 34° S 05:06:00 10° ESE visible
08 Aug 8.3 04:34:44 34° S 04:34:49 34° S 04:38:18 10° ESE visible
09 Aug 9.3 04:08:45 23° SE 04:08:45 23° SE 04:10:37 10° ESE visible
10 Aug 10.4 03:42:51 10° ESE 03:42:51 10° ESE 03:42:56 10° ESE visible
10 Aug 8.9 05:17:07 16° SW 05:19:04 23° SSW 05:22:09 10° SE visible
11 Aug 8.9 04:51:21 23° SSW 04:51:22 23° SSW 04:54:24 10° SE visible
12 Aug 9.7 04:25:43 15° SSE 04:25:43 15° SSE 04:26:41 10° SE visible
